STARLINK-1146, 45094

Orbit data source: Space-Track

STARLINK-1146, 45094 is a payload satellite owned by SpaceX/Seattle (US) in LEO that was launched on Wed, 29 Jan 2020 UTC via an FALCON 9 launch vehicle from the Air Force Eastern Test Range (AFETR). Payload-class satellites include a variety of spacecraft equipped with specific instruments for various scientific and technological missions. These include communications satellites like Starlink; space stations such as the ISS; scientific satellites like the Hubble; Earth observation satellites from companies like Planet Labs, Umbra, and HawkEye 360; GPS; miniature CubeSats for education and research; and military/defense satellites.

Loading next visibility...
Identifier
45094, 2020-006BC
Orbit
LEO
Last TLE update
8 hours ago
Origin
Manufacturer
SpaceX/Seattle
Mission
Partially operational Commercial Communications
Bus & Motor
STARLINK, Unknown motor
Mass
260 kg wet, ~248 kg dry
Launch date (UTC)
2020-01-29 (5 years ago)
Launch vehicle
FALCON 9
Launch site
Air Force Eastern Test Range (AFETR)
Object type
Payload
Rocket body
Debris
Shape & HBR
Box + 1 Pan, 8.86 m
Radar Cross Section
13.562 m², Large (>1 m²)

Expand to show TLE details & history

TLE from 8 hours ago
0 STARLINK-1146
1 45094U 20006BC  25182.91667824  .00065869  00000-0  69819-3 0  9991
2 45094  53.0557 281.3138 0006367 311.6881 130.5093 15.63497978  5853
Epoch: 2025-07-01T22:00Z
TLE epoch observation values (Epoch: 2025-07-01T22:00:00.999Z)
Latitude
52.51951°
Longitude
108.33601°
Altitude
386.725 km
Speed
7.683 km/s
True Right ascension
23h 54m 10s
True Declination
52° 20' 39"
Sunlit
Object was in daylight at epoch
Visualization orbit readout
Latitude
43.97269°
Longitude
75.73477°
Altitude
383.155 km
Speed
7.685 km/s
Apparent Right ascension
01h 30m 52s
Apparent Declination
6° 22' 02"
Sunlit
Object is in daylight
Visualization observer readout
Local Sidereal Time
17:16:09
Azimuth
62.058° ENE
Elevation
-20.58°
Doppler factor
1
Orbital elements
Apogee altitude
382.141 km
Perigee altitude
373.538 km
Semi-major axis
6,755.976 km
Eccentricity
0.00064
Inclination
53.0557°
RAAN
281.3138°
Arg. of periapsis
311.6881°
True anomaly
Unknown
Mean anomaly
130.5093°
Eccentric anomaly
Unknown
Mean motion
3.90851 °/min
Orbital period
92.11 mins
BSTAR
0.00069819
Loading maneuver chart data...
Loading SW <> Apogee altitude chart data...

STARLINK-1146 Visibility forecast

Observer location: undefined°, undefined°

Span
Click to sort rows by Start time (UTC) header in descending order
Start Az.
Max El. time (UTC)
Max El. Az.
Max El.
End time (UTC)
End Az.
4 mins2025-07-02 16:35:34.184Z280.754° WNW2025-07-02 16:36:34.184Z242.633° WSW34.234°2025-07-02 16:39:34.184Z152.053° SSE
|